Date String (YYYY-MM-DD hh:mm:ss) UTC,Instrument flags,absolute air pressure of the measurement (hPa),sample flow rate (lpm),inlet stack bypass flow (lpm),air temperature of the measurement (°C),ambient temperature measured by the external sensor (°C),aerosol sample conditioner tube jacket temperature (°C),OPC LED temperature (°C),internal box temperature (°C),relative humidity of the measurement (%),span deviation,mass concentration of particles derived from Lorenz-Mie calculation of OPC scattering (μg/m³),mass concentration of particles derived from Lorenz-Mie calculation of OPC scattering (μg/m³),mass concentration of particles derived from Lorenz-Mie calculation of OPC scattering (μg/m³)
DateTimeUTC,F1_M11,P_M11,Q1_M11,Q2_M11,T1_M11,T2_M11,T3_M11,T4_M11,T5_M11,U1_M11,ZSPAN_M11,X0_M11,X2_M11,X1_M11
2023-08-06 10:00:00,SystemResetWarning,0837.6,5.01,000.00,029.6,028.4,000.0,038.2,031.2,31.1,0000.0,0007.68,0003.94,0003.81
2023-08-06 10:01:00,SystemResetWarning,0837.7,4.99,000.00,029.6,028.4,000.0,038.2,031.3,31.1,0000.0,0007.35,0003.95,0003.82
2023-08-06 10:02:00,SystemResetWarning,0837.7,4.99,000.00,029.6,028.5,000.0,038.2,031.3,31.2,0000.0,0007.36,0003.96,0003.81
2023-08-06 10:03:00,SystemResetWarning,0837.7,5.00,000.00,029.7,028.5,000.0,038.2,031.3,30.9,0000.0,0007.34,0003.94,0003.79
2023-08-06 10:04:00,SystemResetWarning,0837.7,5.00,000.00,029.7,028.5,000.0,038.2,031.3,30.8,0000.0,0007.39,0003.93,0003.78
2023-08-06 10:05:00,SystemResetWarning,0837.7,5.00,000.00,029.7,028.6,000.0,038.2,031.3,30.9,0000.0,0007.49,0003.94,0003.78
2023-08-06 10:06:00,SystemResetWarning,0837.7,5.00,000.00,029.7,028.6,000.0,038.3,031.4,31.2,0000.0,0006.85,0003.95,0003.77
2023-08-06 10:07:00,SystemResetWarning,0837.7,5.00,000.00,029.8,028.6,000.0,038.3,031.4,30.8,0000.0,0006.43,0003.96,0003.77
2023-08-06 10:08:00,SystemResetWarning,0837.6,5.01,000.00,029.8,028.7,000.0,038.3,031.4,30.7,0000.0,0006.36,0003.96,0003.76
2023-08-06 10:09:00,SystemResetWarning,0837.6,5.00,000.00,029.8,028.7,000.0,038.3,031.4,30.4,0000.0,0005.09,0003.94,0003.74
2023-08-06 10:10:00,SystemResetWarning,0837.6,4.99,000.00,029.8,028.7,000.0,038.3,031.4,30.3,0000.0,0005.10,0003.93,0003.74
2023-08-06 10:11:00,SystemResetWarning,0837.6,4.99,000.00,029.8,028.7,000.0,038.4,031.4,30.5,0000.0,0005.61,0003.94,0003.74
2023-08-06 10:12:00,SystemResetWarning,0837.6,4.99,000.00,029.9,028.7,000.0,038.4,031.5,30.5,0000.0,0005.79,0003.96,0003.74
2023-08-06 10:13:00,SystemResetWarning,0837.7,5.00,000.00,029.9,028.7,000.0,038.4,031.5,30.5,0000.0,0006.23,0003.99,0003.75
2023-08-06 10:14:00,SystemResetWarning,0837.7,5.00,000.00,029.9,028.7,000.0,038.4,031.5,30.7,0000.0,0006.53,0003.98,0003.75
2023-08-06 10:15:00,SystemResetWarning,0837.7,5.01,000.00,029.9,028.8,000.0,038.4,031.5,30.8,0000.0,0006.65,0004.00,0003.75
2023-08-06 10:16:00,SystemResetWarning,0837.7,5.01,000.00,029.9,028.7,000.0,038.4,031.5,30.6,0000.0,0006.41,0003.99,0003.75
2023-08-06 10:17:00,SystemResetWarning,0837.7,4.98,000.00,029.9,027.2,000.0,038.3,031.3,30.8,0000.0,0006.37,0003.99,0003.76
2023-08-06 10:18:00,SystemResetWarning,0837.6,5.01,000.00,029.8,025.7,000.0,038.2,031.1,31.0,0000.0,0007.11,0004.00,0003.77
2023-08-06 10:19:00,SystemResetWarning,0837.6,5.01,000.00,029.7,025.3,000.0,038.1,030.8,31.0,0000.0,0007.41,0004.02,0003.79
2023-08-06 10:20:00,SystemResetWarning,0837.6,4.99,000.00,029.6,025.5,000.0,038.2,030.6,31.3,0000.0,0007.43,0004.04,0003.81
2023-08-06 10:21:00,SystemResetWarning,0837.6,5.00,000.00,029.5,025.9,000.0,038.2,030.7,31.4,0000.0,0007.23,0004.02,0003.81
2023-08-06 10:22:00,SystemResetWarning,0837.6,5.00,000.00,029.5,026.3,000.0,038.2,030.8,31.4,0000.0,0006.73,0004.02,0003.81
2023-08-06 10:23:00,SystemResetWarning,0837.7,5.00,000.00,029.5,026.7,000.0,038.2,030.8,31.5,0000.0,0006.66,0004.01,0003.81
2023-08-06 10:24:00,SystemResetWarning,0837.7,5.00,000.00,029.4,027.0,000.0,038.2,030.9,31.6,0000.0,0006.21,0003.96,0003.80
2023-08-06 10:25:00,SystemResetWarning,0837.7,5.00,000.00,029.4,027.2,000.0,038.2,031.0,31.6,0000.0,0006.08,0003.99,0003.80
2023-08-06 10:26:00,SystemResetWarning,0837.7,5.00,000.00,029.5,027.5,000.0,038.2,031.0,31.5,0000.0,0005.97,0003.99,0003.81
2023-08-06 10:27:00,SystemResetWarning,0837.7,5.00,000.00,029.5,027.6,000.0,038.2,031.0,31.1,0000.0,0006.05,0004.02,0003.83
2023-08-06 10:28:00,SystemResetWarning,0837.7,5.00,000.00,029.5,027.8,000.0,038.2,031.0,31.0,0000.0,0006.53,0004.04,0003.83
2023-08-06 10:29:00,SystemResetWarning,0837.7,5.00,000.00,029.5,027.9,000.0,038.1,031.1,30.8,0000.0,0006.54,0004.03,0003.83
2023-08-06 10:30:00,SystemResetWarning,0837.7,4.99,000.00,029.5,028.0,000.0,038.2,031.1,30.9,0000.0,0005.92,0004.03,0003.82
2023-08-06 10:31:00,SystemResetWarning,0837.7,5.00,000.00,029.5,028.0,000.0,038.2,031.1,30.8,0000.0,0005.91,0004.03,0003.82
2023-08-06 10:32:00,SystemResetWarning,0837.8,5.00,000.00,029.5,028.1,000.0,038.2,031.1,30.9,0000.0,0005.96,0004.03,0003.81
2023-08-06 10:33:00,SystemResetWarning,0837.8,5.00,000.00,029.5,028.2,000.0,038.2,031.1,30.8,0000.0,0005.98,0004.04,0003.81
2023-08-06 10:34:00,SystemResetWarning,0837.7,5.01,000.00,029.6,028.2,000.0,038.2,031.2,30.9,0000.0,0005.90,0004.03,0003.81
2023-08-06 10:35:00,SystemResetWarning,0837.8,5.01,000.00,029.6,028.3,000.0,038.2,031.2,30.8,0000.0,0006.00,0004.03,0003.81
2023-08-06 10:36:00,SystemResetWarning,0837.8,5.00,000.00,029.6,028.3,000.0,038.2,031.2,30.7,0000.0,0006.20,0004.05,0003.80
2023-08-06 10:37:00,SystemResetWarning,0837.7,4.99,000.00,029.6,028.3,000.0,038.2,031.2,30.6,0000.0,0006.08,0004.02,0003.79
2023-08-06 10:38:00,SystemResetWarning,0837.7,4.99,000.00,029.6,028.4,000.0,038.2,031.2,30.7,0000.0,0005.99,0003.99,0003.77
2023-08-06 10:39:00,SystemResetWarning,0837.7,5.00,000.00,029.6,028.4,000.0,038.2,031.2,30.7,0000.0,0005.67,0003.95,0003.76
2023-08-06 10:40:00,SystemResetWarning,0837.7,5.01,000.00,029.6,028.4,000.0,038.2,031.2,30.8,0000.0,0005.76,0003.94,0003.75
2023-08-06 10:41:00,SystemResetWarning,0837.8,5.01,000.00,029.7,028.4,000.0,038.2,031.3,30.6,-002.2,0005.88,0003.93,0003.74
2023-08-06 10:42:00,SystemResetWarning,0837.8,5.00,000.00,029.7,028.5,000.0,038.3,031.3,30.6,-001.5,0005.89,0003.93,0003.74
2023-08-06 10:43:00,SystemResetWarning,0837.8,5.00,000.00,029.7,028.5,000.0,038.3,031.3,30.7,0000.0,0006.26,0003.93,0003.74
2023-08-06 10:44:00,SystemResetWarning,0837.8,5.00,000.00,029.7,028.5,000.0,038.3,031.3,30.8,0000.0,0007.02,0003.93,0003.75
2023-08-06 10:45:00,SystemResetWarning,0837.8,5.00,000.00,029.7,028.5,000.0,038.3,031.3,30.9,0000.0,0007.03,0003.93,0003.75
2023-08-06 10:46:00,SystemResetWarning,0837.8,5.00,000.00,029.7,028.5,000.0,038.3,031.3,30.9,0000.0,0006.99,0003.94,0003.76
2023-08-06 10:47:00,SystemResetWarning,0837.7,5.00,000.00,029.8,028.5,000.0,038.3,031.3,30.8,0000.0,0006.72,0003.91,0003.78
2023-08-06 10:48:00,SystemResetWarning,0837.8,5.00,000.00,029.8,028.6,000.0,038.3,031.4,30.6,0000.0,0006.75,0003.93,0003.79
2023-08-06 10:49:00,SystemResetWarning,0837.8,5.00,000.00,029.8,028.6,000.0,038.4,031.4,30.5,0000.0,0006.88,0003.96,0003.80
2023-08-06 10:50:00,SystemResetWarning,0837.8,5.00,000.00,029.8,028.6,000.0,038.4,031.4,30.6,0000.0,0006.84,0003.98,0003.80
2023-08-06 10:51:00,SystemResetWarning,0837.8,5.00,000.00,029.8,028.6,000.0,038.4,031.4,30.5,0000.0,0006.28,0003.99,0003.81
2023-08-06 10:52:00,SystemResetWarning,0837.7,4.99,000.00,029.8,028.6,000.0,038.4,031.4,30.3,0000.0,0006.80,0003.98,0003.80
2023-08-06 10:53:00,SystemResetWarning,0837.7,5.00,000.00,029.9,028.7,000.0,038.4,031.5,30.3,0000.0,0006.82,0003.98,0003.80
2023-08-06 10:54:00,SystemResetWarning,0837.8,5.00,000.00,029.9,028.7,000.0,038.4,031.4,30.1,0000.0,0006.53,0004.00,0003.79
2023-08-06 10:55:00,SystemResetWarning,0837.8,5.00,000.00,029.9,028.7,000.0,038.5,031.5,30.1,0000.0,0005.94,0004.02,0003.79
2023-08-06 10:56:00,SystemResetWarning,0837.8,5.00,000.00,029.9,028.7,000.0,038.5,031.5,30.2,0000.0,0005.86,0004.01,0003.78
2023-08-06 10:57:00,SystemResetWarning,0837.8,5.01,000.00,029.9,028.7,000.0,038.5,031.5,30.2,0000.0,0005.82,0004.00,0003.78
2023-08-06 10:58:00,SystemResetWarning,0837.8,4.98,000.00,029.9,027.3,000.0,038.4,031.4,30.2,0000.0,0005.98,0004.02,0003.79
2023-08-06 10:59:00,SystemResetWarning,0837.7,5.01,000.00,029.9,025.7,000.0,038.2,031.2,30.2,0000.0,0006.03,0004.02,0003.78
